Weather History for White Plains, NY

Change the Weather History Date:

Friday, January 25, 2013

  Actual Average Record
Temperature  
Mean Temperature 16 °F -  
Max Temperature 21 °F 33 °F 52 °F (1990)
Min Temperature 12 °F 19 °F 3 °F (2004)
Degree Days  
Heating Degree Days 48    
Moisture  
Dew Point 6 °F    
Average Humidity 63    
Maximum Humidity 86    
Minimum Humidity 37    
Precipitation  
Precipitation 0.04 in - - ()
Sea Level Pressure  
Sea Level Pressure 30.24 in    
Wind  
Wind Speed 8 mph (West)    
Max Wind Speed 17 mph    
Max Gust Speed 26 mph    
Visibility 7 miles    
Events Fog , Snow    
Averages and records for this station are not official NWS values.
T = Trace of Precipitation, MM = Missing Value Source: NWS Daily Summary

Daily Weather History Graph

Daily Weather History Graph

Search for Another Location

Airport:

Trip Planner

Search our weather history database for the weather conditions in past years. The results will help you decide how hot, cold, wet, or windy it might be!

Date:

Astronomy

Jan. 25, 2013 Rise Set
Actual Time 7:11 AM EST 5:03 PM EST
Civil Twilight 6:41 AM EST 5:32 PM EST
Nautical Twilight 6:08 AM EST 6:06 PM EST
Astronomical Twilight 5:36 AM EST 6:38 PM EST
Moon 3:58 PM EST (1/25) 5:49 AM EST (1/25)
Length of Visible Light 10h 51m
Length of Day
9h 51m
Waxing Gibbous, 98% of the Moon is Illuminated
Jan 25
Waxing Gibbous
Jan 26
Full
Feb 3
Last Quarter
Feb 10
New
Feb 17
First Quarter

Hourly Weather History & Observations

Time (EST) Temp. Windchill Dew Point Humidity Pressure Visibility Wind Dir Wind Speed Gust Speed Precip Events Conditions
12:56 AM 12.9 °F -3.4 °F -0.9 °F 54% 30.36 in 10.0 mi WNW 16.1 mph 21.9 mph N/A   Clear
1:56 AM 12.0 °F -5.1 °F -0.9 °F 56% 30.38 in 10.0 mi WNW 17.3 mph 26.5 mph N/A   Clear
2:56 AM 12.0 °F -1.3 °F 1.0 °F 61% 30.38 in 10.0 mi WNW 10.4 mph - N/A   Clear
3:56 AM 12.0 °F -1.3 °F 1.0 °F 61% 30.37 in 10.0 mi West 10.4 mph - N/A   Clear
4:56 AM 12.0 °F -1.3 °F -0.9 °F 56% 30.39 in 10.0 mi WNW 10.4 mph - N/A   Clear
5:56 AM 12.0 °F 0.5 °F -0.9 °F 56% 30.39 in 10.0 mi West 8.1 mph - N/A   Clear
6:56 AM 12.0 °F 1.5 °F -0.0 °F 59% 30.40 in 10.0 mi West 6.9 mph - N/A   Clear
7:56 AM 12.9 °F 5.2 °F 1.0 °F 59% 30.39 in 10.0 mi WNW 4.6 mph - N/A   Clear
8:56 AM 14.0 °F 3.9 °F 1.9 °F 59% 30.40 in 10.0 mi NW 6.9 mph - N/A   Clear
9:56 AM 15.1 °F 9.4 °F 1.9 °F 56% 30.40 in 10.0 mi West 3.5 mph - N/A   Clear
10:56 AM 18.0 °F 12.7 °F 1.0 °F 48% 30.38 in 10.0 mi WNW 3.5 mph - N/A   Clear
11:56 AM 19.0 °F 13.9 °F 1.9 °F 47% 30.33 in 10.0 mi Variable 3.5 mph - N/A   Clear
12:56 PM 21.0 °F 14.6 °F -0.0 °F 40% 30.28 in 10.0 mi North 4.6 mph - N/A   Mostly Cloudy
1:56 PM 21.9 °F - -0.0 °F 38% 30.25 in 10.0 mi Calm Calm - N/A   Mostly Cloudy
2:56 PM 21.9 °F 17.2 °F -0.9 °F 37% 30.22 in 10.0 mi SSW 3.5 mph - N/A   Mostly Cloudy
3:56 PM 21.9 °F 14.5 °F 1.9 °F 42% 30.21 in 10.0 mi South 5.8 mph - N/A   Mostly Cloudy
4:56 PM 21.0 °F 14.6 °F 3.0 °F 46% 30.19 in 10.0 mi SSE 4.6 mph - N/A   Mostly Cloudy
5:56 PM 19.9 °F - 10.9 °F 68% 30.17 in 2.0 mi Calm Calm - 0.00 in Snow Light Snow
6:54 PM 19.4 °F - 15.8 °F 86% 30.09 in 1.0 mi Calm Calm - 0.01 in Snow Light Snow
6:56 PM 19.9 °F - 15.1 °F 81% 30.14 in 1.0 mi Calm Calm - 0.01 in Snow Light Snow
7:56 PM 19.0 °F - 15.1 °F 85% 30.12 in 1.0 mi Calm Calm - 0.02 in Snow Light Snow
8:05 PM 19.4 °F 12.8 °F 15.8 °F 86% 30.07 in 0.5 mi West 4.6 mph - 0.00 in Fog , Snow Light Snow
8:56 PM 19.0 °F 12.3 °F 14.0 °F 81% 30.11 in 0.5 mi West 4.6 mph - 0.00 in Snow Snow
9:03 PM 17.6 °F 10.7 °F 14.0 °F 86% 30.06 in 1.0 mi West 4.6 mph - 0.01 in Snow Light Snow
9:48 PM 17.6 °F 12.3 °F 12.2 °F 79% 30.05 in 4.0 mi West 3.5 mph - 0.01 in   Haze
9:56 PM 17.1 °F 10.0 °F 12.9 °F 84% 30.09 in 6.0 mi West 4.6 mph - 0.01 in   Mostly Cloudy
10:56 PM 16.0 °F 7.4 °F 12.0 °F 84% 30.07 in 6.0 mi West 5.8 mph - 0.00 in   Scattered Clouds
11:56 PM 16.0 °F 8.8 °F 10.9 °F 81% 30.06 in 10.0 mi WNW 4.6 mph - N/A   Clear